Location: Avon
(37.7514°N, 90.2235°W)
Time: 01:09:47
(UTC+00:00)

ISS - Visible Passes

Search period start: 13 October 2024 00:00
Search period end: 23 October 2024 00:00
Orbit: 411 x 424 km, 51.6° (Epoch: 12 October)

Date Brightness Start Highest point End Pass type
(mag) Time Alt. Az. Time Alt. Az. Time Alt. Az.
15 Oct -1.5 11:18:48 10° S 11:21:35 25° SE 11:24:24 10° ENE visible
16 Oct -0.8 10:31:38 10° SSE 10:33:27 14° SE 10:35:17 10° E visible
17 Oct -3.8 11:18:11 10° SW 11:21:30 85° SE 11:24:50 10° NE visible
18 Oct -2.8 10:32:29 37° S 10:33:09 43° SE 10:36:20 10° ENE visible
19 Oct -0.7 09:46:39 15° E 09:46:39 15° E 09:47:32 10° ENE visible
19 Oct -2.9 11:19:35 19° W 11:21:26 33° NNW 11:24:30 10° NE visible
20 Oct -3.1 10:33:32 45° N 10:33:32 45° N 10:36:10 10° NE visible
21 Oct -0.5 09:47:18 12° NE 09:47:18 12° NE 09:47:39 10° NE visible
21 Oct -1.8 11:20:13 14° NW 11:21:24 16° NNW 11:23:37 10° NNE visible
22 Oct -1.7 10:33:51 19° N 10:33:51 19° N 10:35:21 10° NNE visible
